Wind_Speed
7 7 8 8 12 14 15 15 14 13 13 12 12 12 13 14 14 12 10 8 8 7 6 7 7 7 7 10 9 8 8 8 8 7 6 3 1 2 7 3 6 6 7 6 14 9 15
7 8 8 9 9 12 14 14 16 15 14 13 14 14 15 15 14 12 9 9 8 7 6 7 7 7 9 11 11 9 9 10 9 7 5 2 1 3 4 5 3 5 7 8 4 12 17
8 8 9 9 9 10 11 13 12 13 13 12 10 9 9 10 10 10 9 9 8 7 6 6 7 8 9 10 9 10 11 11 10 9 5 4 3 1 1 2 3 4 9 2 4 13 19
10 10 10 10 9 9 10 11 12 11 10 9 7 7 6 6 8 9 9 9 8 7 6 6 6 7 8 9 9 11 11 11 10 8 6 4 4 1 3 1 1 3 5 5 8 12 16
11 11 11 11 11 10 10 11 11 11 10 9 7 7 6 7 7 7 7 7 7 7 6 6 6 7 8 8 10 11 11 11 9 7 5 3 2 1 1 2 6 5 1 8 12 15 16
13 13 13 13 12 12 12 11 12 13 11 10 9 7 6 8 8 7 6 5 5 6 6 5 5 6 8 10 11 11 11 8 7 6 4 2 2 2 3 3 11 10 3 3 11 16 19
14 14 15 14 14 14 13 13 12 12 12 12 10 9 8 7 8 8 7 6 5 6 7 6 6 7 8 9 12 12 10 9 8 7 4 3 6 4 3 2 5 6 6 4 6 11 15
16 16 16 16 16 16 15 14 14 13 13 13 12 12 11 11 10 9 8 7 6 7 6 7 8 8 8 9 10 11 10 10 10 8 7 7 10 7 7 9 8 8 10 8 7 9 11
16 17 17 16 17 17 17 16 15 14 14 13 12 12 12 12 12 11 10 9 9 9 9 8 8 10 10 10 11 11 11 10 10 9 9 10 12 12 13 14 11 11 13 13 11 10 5
16 16 17 17 17 18 18 17 17 16 16 15 14 13 12 12 12 14 13 12 10 9 9 9 10 10 11 11 11 10 11 11 11 12 12 12 17 17 18 17 16 13 14 16 10 4 4
15 16 17 17 18 18 18 17 17 17 17 16 16 14 14 12 12 12 12 14 11 9 8 9 10 11 11 11 11 12 11 12 13 13 13 17 16 16 11 10 13 16 14 13 9 7 8
15 16 16 17 18 19 18 17 17 17 17 17 17 16 15 14 13 15 13 11 10 12 8 7 10 11 12 12 11 11 12 12 11 12 13 11 13 13 6 9 13 11 9 7 7 11 10
14 15 16 17 18 18 18 18 17 17 18 18 17 17 16 16 15 15 14 12 8 10 15 13 10 9 11 12 11 10 10 10 7 7 4 4 9 12 8 3 7 9 6 5 12 14 11
14 14 15 16 17 17 18 18 17 18 19 19 18 18 18 17 17 16 15 12 14 17 13 10 7 6 5 9 10 9 4 6 2 6 7 9 11 5 2 7 10 9 5 6 11 9 7
13 14 14 15 15 15 16 16 16 17 19 20 19 19 19 19 18 17 16 14 25 23 17 12 5 4 1 7 4 5 7 8 4 4 9 7 2 4 5 11 10 14 14 4 13 3 10
13 13 14 14 14 15 15 16 17 18 20 20 19 18 19 18 18 17 16 21 29 28 26 18 10 8 10 11 9 5 3 7 1 8 5 5 4 2 4 3 7 5 2 1 3 11 9
14 14 14 15 15 16 17 18 19 20 21 19 18 18 18 17 16 15 14 26 32 35 27 24 23 19 19 15 13 12 14 18 11 14 11 10 5 8 8 12 10 10 11 11 11 12 15
18 17 17 17 19 20 21 22 21 20 19 17 16 18 18 19 19 18 17 36 37 39 35 28 27 26 23 23 12 24 26 22 13 17 20 20 18 11 18 21 21 22 19 18 18 16 21
22 22 21 22 22 23 22 21 20 18 16 16 14 17 18 20 22 22 22 26 33 38 36 30 28 24 24 26 21 18 15 21 24 21 23 21 19 15 16 27 29 26 28 29 24 17 29
19 21 22 22 21 21 19 15 14 14 14 13 15 18 19 24 24 26 27 23 20 31 30 25 29 28 25 28 25 26 25 27 26 24 20 20 22 23 22 23 32 36 36 35 33 35 32
14 15 16 15 14 13 11 11 11 12 12 11 10 12 18 24 25 25 23 22 21 22 25 21 28 27 26 27 27 29 31 29 24 18 15 15 21 22 23 25 28 30 32 37 38 39 40
10 10 10 10 10 11 11 11 11 11 11 10 13 15 14 17 22 24 22 24 20 17 18 18 22 20 19 21 24 27 31 31 28 26 25 23 25 24 25 28 32 34 35 37 40 43 46
7 8 8 8 8 9 10 11 11 12 13 13 15 18 17 20 19 19 18 22 18 12 12 12 17 18 19 18 20 22 23 25 27 28 28 28 27 23 23 24 28 30 31 28 29 33 38
6 6 6 7 7 8 9 11 12 13 14 14 15 16 18 19 19 18 15 15 10 13 17 16 17 18 18 19 20 21 22 25 27 28 28 25 23 25 24 22 17 16 16 22 28 31 34
6 5 5 6 7 7 8 10 12 13 14 15 15 16 17 14 14 15 11 11 14 18 18 12 15 20 16 17 19 21 24 25 27 24 21 22 22 21 18 17 17 18 20 25 29 32 33
5 5 5 6 7 7 8 9 11 12 14 15 16 17 15 14 13 13 13 14 15 15 17 13 15 18 19 19 21 21 20 20 19 20 21 20 17 17 17 18 19 17 25 31 35 33 32
5 5 5 6 6 7 8 8 9 11 13 14 15 15 12 11 12 15 15 15 15 14 14 14 17 15 16 16 17 17 17 17 18 19 18 17 16 18 19 22 24 27 29 33 34 33 31
7 7 6 5 6 6 7 8 9 10 11 13 12 11 10 12 15 12 13 14 14 14 13 17 14 14 14 14 15 16 16 17 19 20 18 15 17 20 25 27 29 29 33 34 32 31 33
10 9 8 7 6 6 7 7 8 9 11 12 13 11 10 11 12 12 13 14 14 14 14 12 13 13 13 14 15 16 17 18 19 19 15 16 20 25 30 31 33 32 33 30 34 37 39
Wind_Direction
243 238 234 235 235 231 231 231 232 235 238 242 245 249 254 257 259 261 258 251 243 251 249 243 236 226 214 214 215 212 220 201 191 182 185 199 199 359 285 13 79 69 78 71 39 11 32
246 247 246 242 243 234 233 232 234 237 242 248 254 258 259 258 254 248 240 231 233 242 249 244 230 223 214 218 211 213 205 191 182 182 181 182 284 9 333 51 119 124 114 111 37 45 29
238 242 244 244 242 236 233 228 229 230 236 243 243 244 252 248 236 229 224 223 230 237 239 238 229 216 213 216 214 209 193 186 177 170 154 95 59 328 70 76 126 73 68 135 20 22 23
239 239 237 237 237 234 230 225 223 223 221 219 222 236 245 223 208 212 216 219 224 233 237 234 222 216 213 209 216 199 186 182 176 173 164 143 99 282 67 148 315 89 99 57 358 27 6
244 241 238 236 233 233 231 228 223 218 215 217 219 218 215 209 207 209 215 221 226 226 231 236 228 218 215 210 193 195 177 179 182 170 154 122 113 315 308 326 287 262 302 11 351 354 338
245 244 240 235 234 231 230 229 228 229 226 225 222 217 208 207 210 210 212 218 217 211 212 223 228 206 195 185 183 180 181 183 184 177 178 130 213 224 271 301 282 277 264 59 296 306 317
246 244 244 240 235 233 230 229 230 232 231 228 224 223 222 214 213 211 206 213 206 200 196 199 188 196 183 190 175 183 185 194 205 209 217 229 251 247 278 307 296 311 314 333 301 282 297
249 247 244 241 238 235 232 229 230 229 232 231 228 230 229 230 228 224 220 222 215 206 200 197 183 185 191 186 189 192 200 208 219 229 239 243 261 264 275 265 283 298 324 305 316 298 306
248 247 247 246 240 237 237 233 231 229 228 231 233 235 235 235 237 238 236 241 234 215 209 207 197 196 200 194 207 206 215 219 232 249 257 262 266 271 272 263 279 299 300 302 327 337 335
251 249 246 246 246 242 238 236 235 235 233 229 231 233 235 237 238 238 237 231 224 222 214 210 209 210 211 208 212 220 226 232 242 250 262 263 273 282 291 299 298 286 282 297 328 329 66
252 251 247 246 243 243 242 240 236 235 235 233 232 231 239 238 236 241 241 241 239 220 212 218 213 208 216 216 212 222 233 242 251 263 269 272 272 270 272 291 287 297 297 290 285 136 67
256 251 247 245 242 241 239 240 243 242 238 232 234 235 236 239 238 239 237 231 229 232 198 202 216 212 220 216 221 230 243 250 260 270 279 295 281 266 284 322 318 306 295 275 210 159 121
259 256 251 247 243 240 238 239 241 241 243 241 241 241 240 242 240 237 234 225 208 218 219 215 215 223 233 238 243 240 251 264 269 269 239 208 249 284 306 6 343 332 314 234 190 178 145
262 259 253 247 242 238 236 239 240 239 243 246 246 246 245 241 238 237 229 207 182 204 202 225 200 269 281 252 264 266 245 238 260 271 260 243 256 260 73 44 37 3 352 263 189 217 144
262 257 254 246 240 235 236 237 239 242 247 250 248 246 243 237 233 231 223 187 190 212 194 195 246 54 202 146 317 216 161 199 156 268 239 249 215 123 87 54 35 43 22 273 215 188 173
258 253 250 243 240 237 237 241 247 251 253 255 251 245 238 232 227 226 218 181 197 212 208 181 178 199 231 229 209 271 310 251 223 240 237 247 184 213 142 27 289 181 175 169 221 202 213
258 253 247 246 244 244 248 255 261 260 260 253 248 235 225 224 224 206 203 183 201 213 216 188 188 202 233 225 246 215 237 252 244 266 264 297 313 225 255 234 212 240 216 223 212 224 226
258 255 252 250 254 258 262 265 267 264 257 248 231 232 231 224 213 192 190 187 200 218 206 193 196 206 230 240 220 214 230 222 225 247 262 266 271 259 226 258 265 265 257 245 228 218 229
257 258 259 260 264 266 269 269 266 258 242 234 229 230 227 212 197 199 211 211 215 223 221 216 219 219 217 233 233 226 232 220 230 239 256 267 278 269 215 234 249 252 266 272 268 243 230
262 260 261 263 265 267 265 258 237 232 231 231 232 230 209 193 191 204 221 228 232 227 229 224 223 224 222 228 238 259 246 254 261 272 285 286 282 278 267 247 242 251 259 266 269 271 262
263 261 260 260 258 250 238 241 234 227 229 239 230 214 202 196 201 209 216 232 245 225 214 211 218 218 214 227 240 250 262 271 275 278 274 278 258 264 271 271 266 262 260 258 258 263 268
265 261 258 253 238 247 244 228 226 225 223 216 185 186 194 225 224 219 213 230 234 225 220 209 223 231 238 246 253 247 250 260 269 277 283 280 272 267 268 268 269 271 271 270 267 265 265
258 255 251 250 246 237 224 219 221 218 213 212 202 196 198 205 212 223 232 231 231 228 213 219 237 238 238 228 229 232 239 247 253 260 269 275 280 284 281 282 278 277 283 284 281 277 273
261 255 248 236 228 225 222 219 217 212 209 210 205 203 208 212 215 221 218 224 244 251 237 229 239 241 232 230 236 240 246 251 259 265 270 277 283 286 289 284 278 288 305 304 294 291 287
260 249 241 234 223 219 215 211 209 207 207 208 208 212 218 218 215 229 240 249 237 241 250 236 231 245 242 240 243 245 249 254 257 264 273 277 278 275 274 284 288 306 310 316 309 295 293
252 249 243 237 228 218 214 209 207 207 207 209 212 218 219 222 225 230 232 237 238 237 244 249 240 241 252 252 251 251 251 255 264 269 271 272 271 274 284 287 296 298 316 312 311 298 295
236 242 245 238 234 223 217 212 209 210 209 210 215 221 220 222 221 220 229 235 237 239 249 252 255 257 255 251 252 255 260 269 274 275 284 272 281 290 290 292 302 305 306 309 312 311 308
230 231 233 229 226 222 218 213 211 213 211 211 214 216 214 217 228 227 235 245 253 255 254 251 246 238 239 246 255 261 259 267 271 277 284 278 282 283 284 293 301 305 309 313 317 311 307
237 236 233 229 223 220 217 215 213 209 212 215 218 218 220 225 229 234 245 255 260 258 253 243 233 238 246 256 261 266 272 273 279 286 287 273 274 275 284 294 297 302 303 309 313 316 314
Height
5906 5907 5907 5908 5909 5910 5911 5912 5914 5915 5916 5917 5918 5918 5919 5919 5920 5921 5921 5921 5922 5921 5921 5922 5922 5923 5924 5925 5926 5927 5927 5929 5930 5930 5930 5931 5931 5931 5931 5929 5929 5929 5930 5930 5931 5929 5927
5904 5905 5905 5906 5906 5907 5908 5909 5911 5912 5913 5914 5915 5916 5915 5916 5916 5917 5918 5919 5920 5920 5920 5920 5921 5921 5922 5923 5924 5925 5926 5928 5930 5930 5931 5932 5932 5932 5932 5930 5930 5929 5928 5930 5931 5928 5926
5902 5902 5903 5904 5904 5905 5905 5907 5908 5909 5910 5911 5912 5913 5912 5912 5913 5914 5916 5917 5918 5918 5918 5918 5919 5919 5921 5922 5923 5924 5925 5927 5929 5931 5931 5933 5933 5933 5932 5931 5930 5929 5929 5929 5928 5927 5925
5899 5900 5900 5901 5902 5902 5903 5904 5905 5906 5908 5909 5910 5910 5910 5911 5911 5913 5914 5915 5916 5917 5917 5917 5917 5918 5919 5921 5922 5923 5925 5927 5929 5930 5931 5932 5932 5934 5932 5932 5931 5930 5930 5929 5929 5926 5925
5896 5897 5898 5898 5899 5900 5901 5902 5903 5904 5906 5907 5908 5908 5909 5909 5910 5911 5912 5913 5915 5915 5916 5916 5917 5917 5919 5920 5921 5923 5925 5927 5929 5930 5931 5931 5933 5932 5932 5931 5931 5929 5927 5927 5925 5924 5925
5893 5894 5895 5896 5896 5897 5898 5899 5900 5902 5903 5905 5906 5907 5907 5908 5909 5910 5911 5912 5913 5914 5915 5915 5916 5918 5918 5919 5921 5923 5925 5927 5928 5929 5930 5931 5931 5931 5930 5930 5930 5928 5925 5925 5926 5926 5924
5890 5890 5891 5892 5893 5894 5895 5897 5897 5899 5900 5902 5903 5905 5905 5906 5907 5908 5910 5911 5913 5913 5913 5914 5916 5916 5917 5919 5920 5923 5924 5926 5928 5928 5929 5930 5930 5930 5929 5928 5928 5926 5924 5923 5924 5924 5923
5885 5886 5888 5889 5890 5891 5892 5893 5895 5896 5897 5899 5900 5902 5903 5904 5905 5906 5908 5909 5910 5912 5912 5913 5914 5916 5917 5919 5920 5922 5924 5926 5926 5927 5928 5929 5927 5928 5928 5928 5927 5924 5923 5923 5923 5923 5921
5881 5882 5883 5885 5886 5887 5888 5890 5891 5893 5894 5896 5897 5899 5900 5901 5902 5904 5905 5907 5908 5909 5911 5912 5913 5915 5917 5918 5919 5920 5922 5923 5924 5925 5925 5926 5926 5926 5926 5926 5924 5922 5921 5921 5923 5921 5920
5876 5877 5879 5880 5882 5883 5884 5886 5887 5889 5891 5892 5894 5895 5897 5898 5900 5900 5902 5903 5905 5907 5909 5911 5912 5914 5915 5917 5918 5918 5920 5922 5922 5922 5922 5924 5922 5922 5921 5920 5918 5919 5919 5918 5921 5920 5918
5872 5873 5874 5876 5877 5879 5880 5882 5883 5885 5887 5889 5890 5892 5893 5894 5896 5897 5899 5901 5903 5906 5908 5910 5910 5910 5912 5915 5917 5916 5917 5918 5919 5919 5921 5919 5919 5917 5917 5916 5915 5915 5915 5916 5917 5918 5918
5868 5869 5870 5871 5873 5874 5876 5878 5880 5881 5883 5884 5886 5888 5889 5891 5892 5893 5895 5897 5900 5904 5905 5907 5907 5908 5909 5911 5913 5914 5915 5916 5916 5916 5916 5916 5915 5914 5913 5914 5913 5912 5913 5912 5913 5915 5918
5864 5865 5866 5867 5868 5870 5871 5873 5875 5876 5878 5880 5882 5883 5885 5886 5888 5890 5892 5895 5899 5899 5900 5902 5903 5904 5906 5908 5910 5911 5911 5912 5913 5913 5914 5914 5913 5913 5913 5913 5912 5910 5910 5911 5912 5914 5915
5861 5861 5862 5863 5864 5866 5867 5869 5870 5872 5873 5875 5877 5879 5880 5882 5883 5886 5889 5893 5895 5893 5896 5897 5899 5902 5904 5904 5905 5908 5908 5908 5910 5911 5911 5912 5913 5913 5913 5912 5909 5909 5909 5910 5911 5913 5915
5857 5857 5858 5859 5860 5862 5863 5865 5866 5868 5869 5870 5872 5874 5875 5877 5879 5882 5885 5889 5889 5891 5894 5895 5896 5900 5900 5902 5903 5905 5906 5907 5907 5908 5911 5910 5911 5910 5910 5909 5910 5909 5909 5909 5910 5910 5912
5853 5854 5855 5856 5857 5858 5860 5861 5862 5863 5864 5865 5866 5868 5869 5872 5875 5878 5881 5885 5884 5886 5890 5892 5894 5895 5895 5896 5899 5901 5902 5902 5902 5903 5906 5908 5910 5909 5908 5908 5907 5906 5906 5907 5907 5909 5909
5850 5850 5851 5852 5853 5854 5856 5857 5857 5858 5858 5859 5861 5862 5865 5868 5871 5874 5877 5880 5880 5881 5886 5887 5891 5894 5893 5896 5897 5898 5900 5898 5901 5900 5903 5905 5908 5911 5908 5905 5904 5905 5902 5901 5903 5904 5902
5846 5847 5847 5848 5849 5850 5851 5851 5851 5852 5852 5854 5856 5857 5860 5864 5868 5870 5871 5872 5874 5874 5880 5884 5887 5889 5892 5894 5893 5894 5895 5898 5899 5900 5901 5903 5904 5906 5907 5903 5902 5899 5900 5898 5898 5902 5899
5840 5841 5842 5843 5843 5844 5845 5845 5845 5846 5847 5849 5851 5852 5854 5858 5862 5865 5866 5868 5870 5870 5875 5881 5884 5886 5888 5889 5890 5891 5892 5893 5893 5894 5895 5897 5899 5900 5902 5901 5898 5896 5893 5892 5894 5897 5894
5834 5835 5836 5837 5837 5838 5838 5839 5840 5841 5843 5845 5847 5847 5850 5853 5857 5859 5860 5864 5866 5868 5871 5877 5878 5881 5886 5885 5888 5887 5889 5888 5890 5892 5893 5896 5896 5895 5895 5896 5893 5892 5892 5890 5889 5888 5888
5830 5830 5831 5831 5832 5833 5834 5835 5836 5838 5840 5842 5844 5846 5850 5851 5853 5855 5858 5861 5862 5863 5865 5871 5872 5875 5879 5882 5885 5884 5883 5883 5885 5888 5891 5891 5889 5889 5888 5887 5885 5886 5887 5884 5883 5881 5878
5826 5826 5827 5827 5828 5829 5830 5831 5833 5835 5837 5838 5841 5843 5846 5849 5850 5852 5855 5854 5858 5860 5865 5869 5870 5875 5879 5881 5882 5881 5880 5880 5879 5880 5879 5881 5882 5883 5882 5880 5877 5876 5877 5875 5872 5870 5866
5823 5823 5824 5824 5825 5826 5827 5829 5830 5832 5834 5836 5839 5841 5843 5844 5848 5850 5853 5853 5856 5859 5862 5866 5867 5870 5871 5873 5873 5874 5874 5874 5874 5875 5875 5874 5873 5874 5874 5873 5870 5869 5868 5866 5863 5858 5856
5821 5821 5821 5822 5823 5824 5825 5826 5828 5829 5831 5834 5836 5838 5839 5842 5845 5846 5849 5853 5855 5855 5857 5861 5862 5863 5865 5866 5868 5869 5869 5869 5869 5868 5867 5867 5868 5867 5866 5863 5863 5863 5862 5859 5855 5848 5845
5819 5819 5819 5820 5821 5822 5823 5824 5825 5827 5829 5831 5833 5835 5837 5841 5844 5845 5848 5851 5852 5853 5853 5857 5859 5858 5860 5861 5862 5863 5863 5864 5862 5863 5863 5863 5862 5860 5859 5858 5857 5856 5854 5851 5845 5840 5836
5816 5817 5817 5818 5819 5820 5821 5822 5823 5825 5827 5829 5831 5833 5836 5839 5841 5843 5844 5846 5848 5849 5849 5853 5853 5854 5855 5856 5856 5856 5857 5857 5858 5857 5858 5856 5855 5854 5852 5851 5849 5849 5846 5841 5835 5831 5827
5814 5815 5816 5816 5817 5818 5819 5820 5822 5823 5824 5826 5828 5830 5834 5836 5837 5839 5840 5842 5843 5845 5847 5848 5847 5849 5850 5850 5850 5852 5853 5853 5852 5851 5851 5849 5848 5846 5844 5843 5842 5840 5838 5833 5828 5824 5816
5812 5813 5814 5814 5815 5816 5817 5818 5819 5821 5823 5824 5826 5828 5831 5832 5833 5836 5837 5838 5839 5841 5842 5843 5845 5844 5845 5847 5847 5847 5848 5848 5846 5846 5845 5845 5842 5840 5837 5836 5835 5832 5828 5824 5820 5813 5808
5810 5811 5812 5813 5813 5814 5815 5816 5817 5819 5820 5822 5824 5826 5828 5830 5831 5832 5833 5834 5835 5836 5838 5839 5839 5839 5841 5842 5842 5842 5842 5842 5841 5841 5840 5839 5838 5835 5832 5831 5826 5823 5819 5815 5809 5802 5796